Regional Weather Roundup
Issued by NWS Jackson, KY

Home | Current Version | Previous Version | Graphics & Text | Print | Product List | Glossary On
Versions: 1 2 3 4 5 6 7 8 9 10 11 12 13 14 15 16 17 18 19 20 21 22 23 24 25 26 27 28 29 30 31 32 33 34 35 36 37 38 39 40 41 42 43 44 45 46 47 48 49 50
000
ASUS43 KJKL 230210
RWRJKL

EAST KENTUCKY HOURLY WEATHER ROUNDUP
NATIONAL WEATHER SERVICE JACKSON KY
1000 PM EDT TUE MAY 22 2018

NOTE: "FAIR" INDICATES FEW OR NO CLOUDS BELOW 12,000 FEET WITH
NO SIGNIFICANT WEATHER AND/OR OBSTRUCTIONS TO VISIBILITY.

* THESE REPORTS ARE NOT UNDER NWS QUALITY CONTROL AND MAY NOT
  REPORT WEATHER SUCH AS PRECIPITATION AND FOG.

KYZ079-080-083-085-087-088-110-112-115-119-120-230300
...EASTERN KENTUCKY...

CITY           SKY/WX    TMP DP  RH WIND       PRES   REMARKS
JACKSON          N/A     70  67  90 CALM      30.05R
LONDON           N/A     67  66  97 CALM      30.07R
SOMERSET*        N/A     66  66 100 MISG      30.06R
MONTICELLO*    FOG       66  66 100 CALM      30.07R VSB 3/4
WILLIAMSBURG*    N/A     66  66 100 CALM      30.07R
MIDDLESBORO*     N/A     68  68 100 CALM      30.07R
HARLAN APT*      N/A     68  67  94 CALM      30.08R
PIKE CO APT*   MOCLDY    67  67 100 CALM      30.06R
BIG SANDY APT*   N/A     70  70 100 CALM      30.04R
MOREHEAD APT*    N/A     72  68  88 CALM      30.03R
ASHLAND*         N/A     71  68  90 CALM      29.99R
$$

KYZ035-036-041-042-044-050-067-078-099-230300
...CENTRAL KENTUCKY...

CITY           SKY/WX    TMP DP  RH WIND       PRES   REMARKS
MT STERLING*     N/A     70  66  88 SW5       30.03R
FLEMING/MASON*   N/A     72  70  95 CALM      30.02R
DANVILLE*        N/A     68  64  88 CALM      30.05R
LEXINGTON        N/A     73  67  81 S3        30.03R
FRANKFORT        N/A     74  66  76 S9        29.99R
LOUISVILLE       N/A     78  70  76 SW7       29.98R
LEBANON*         N/A     70  64  83 S6        30.02R
GLASGOW*         N/A     68  66  93 CALM      30.02S
BOWLING GREEN    N/A     73  69  87 SW3       30.02R
$$

KYZ091>093-OHZ055-061-077-WVZ005-015-034-035-042-230300
...SOUTHERN OHIO/WEST VIRGINIA...

CITY           SKY/WX    TMP DP  RH WIND       PRES   REMARKS
COVINGTON        N/A     73  62  68 SE5       30.00R
COLUMBUS         N/A     71  65  81 CALM      29.97R
DAYTON           N/A     70  62  76 N10       30.02R
WILMINGTON     CLOUDY    74  65  73 N5        30.00R
HUNTINGTON       N/A     71  66  84 S5        30.00R
CHARLESTON       N/A     69  66  90 W5        30.00S
PINEVILLE*     FOG       67  66  97 MISG      30.11S VSB 1/2
BECKLEY          N/A     64  61  90 S3        30.09R
BLUEFIELD        N/A     61  61 100 SW5       30.11S
LOGAN CO APT*    N/A     66  66 100 CALM      30.05R
$$

VAZ002-007-008-TNZ017-027-036-066-071-230300
...SOUTHWEST VIRGINIA/EAST TENNESSEE...

CITY           SKY/WX    TMP DP  RH WIND       PRES   REMARKS
WISE*            N/A     66  66 100 SW3       30.14R
JONESVILLE*      N/A     68  68 100 CALM      30.10R
ABINGDON*        N/A     67  67  99 CALM      30.11R
BRISTOL        MOCLDY    67  67 100 CALM      30.08R
MORRISTOWN*    MOCLDY    73  70  88 CALM      30.07R
SEVIERVILLE*   PTCLDY    72  68  88 W3        30.05R
KNOXVILLE      MOCLDY    70  68  93 W3        30.05R
LAFOLLETTE*    PTCLDY    68  68 100 CALM      30.10R
OAK RIDGE        N/A     74  66  76 W5        30.07R
CROSSVILLE       N/A     67  64  90 CALM      30.09S
NASHVILLE      MOCLDY    70  67  90 W5        30.03R
$$

...KEY TO REMARKS...
VSB - VISIBILITY IN MILES
WCI - WIND CHILL INDEX
HX  - HEAT INDEX

$$



USA.gov is the U.S. government's official web portal to all federal, state and local government web resources and services.